[[{"header":{"parameterUnit":"m.s-1","parameterCategory":1,"la1":30.2991,"la2":30.254,"lo1":-89.0895,"lo2":-89.0444,"dy":0.0017,"dx":0.0017,"nx":28,"ny":28,"refTime":"2024-12-25T03:00:00:Z","depth":0,"parameterNumber":2,"parameterNumberName":"U-component_of_WINDS"},"data":[0,0,0,0,0,0,0,0,0,0,0,0,0,0,0,0,0,0,0,0,0,0,0,0,0,0,0,0,0,0,0,0,0,0,0,0,0,0,0,0,0,0,0,0,0,0,0,0,0,0,0,0,0,0,0,0,0,0,-5.6348,-5.6348,0,-5.6364,-5.6364,-5.6364,-5.6206,-5.6202,-5.6197,-5.6193,-5.6211,-5.6215,-5.6219,0,0,0,0,0,0,0,0,0,0,0,0,0,-5.6182,-5.6186,-5.6347,-5.6348,-5.6348,-5.6364,-5.6364,-5.6364,-5.6207,-5.6201,-5.6196,-5.6191,-5.6209,-5.6214,-5.622,0,0,0,0,0,0,0,0,0,0,0,0,0,-5.6232,-5.6187,-5.6347,-5.6271,-5.6265,-5.6364,-5.6364,-5.6364,-5.6208,-5.6201,-5.6195,-5.6189,-5.6207,-5.6214,-5.6221,-5.6393,0,0,-5.6241,-5.6244,0,0,0,0,0,0,0,0,-5.6229,-5.6238,-5.6282,-5.6277,-5.6269,-5.6276,-5.6312,-5.6374,-5.6209,-5.623,-5.6193,-5.6185,-5.6238,-5.6242,-5.6259,-5.6394,-5.6395,-5.6242,-5.6246,-5.6249,-5.6251,0,0,0,0,0,0,0,-5.6226,-5.6237,-5.6354,-5.6283,-5.6275,-5.6237,-5.6237,-5.6323,-5.627,-5.6227,-5.6216,-5.622,-5.6233,-5.6253,-5.6258,-5.6395,-5.6242,-5.6248,-5.6252,-5.6255,-5.6675,-5.6681,0,0,0,0,0,0,-5.6233,-5.6235,-5.6353,-5.6354,-5.6233,-5.6245,-5.6245,-5.6281,-5.6269,-5.6261,-5.6225,-5.6212,-5.6244,-5.625,-5.6258,-5.646,-5.6249,-5.6255,-5.6259,-5.6668,-5.6676,-5.6684,0,0,0,0,0,0,-5.623,-5.6245,-5.6353,-5.6291,-5.6302,-5.6255,-5.6296,-5.6284,-5.6304,-5.6267,-5.6257,-5.6255,-5.6239,-5.6249,-5.6361,-5.6459,-5.6258,-5.6265,-5.6659,-5.667,-5.668,-5.6866,0,0,0,0,0,0,-5.6226,-5.6245,-5.6309,-5.6294,-5.6306,-5.6455,-5.6302,-5.6289,-5.6316,-5.6299,-5.6293,-5.6285,-5.6235,-5.6352,-5.6368,-5.6464,-5.627,-5.665,-5.6664,-5.6677,-5.6851,-5.6882,-5.6908,0,0,0,0,0,-5.622,-5.6361,-5.6313,-5.6329,-5.6386,-5.6461,-5.6468,-5.6407,-5.6324,-5.6389,-5.6366,-5.6286,-5.6446,-5.6365,-5.6382,-5.6481,-5.6644,-5.666,-5.6676,-5.6838,-5.6876,-5.6907,0,0,0,0,0,0,-5.6388,-5.6357,-5.6304,-5.6444,-5.6457,-5.6434,-5.6514,-5.6449,-5.6485,-5.6467,-5.6391,-5.6391,-5.6516,-5.651,-5.642,-5.6649,-5.653,-5.6551,-5.6648,-5.6683,-5.6711,-5.671,-5.6275,0,0,0,0,0,-5.6442,-5.6505,-5.6475,-5.6601,-5.661,-5.6562,-5.6592,-5.6544,-5.6554,-5.6559,-5.6543,-5.6557,-5.661,-5.6646,-5.6693,-5.685,-5.6846,-5.6927,-5.6955,-5.6979,-5.6997,-5.708,-5.7116,-5.6736,-5.6736,-5.6736,0,0,-5.6552,-5.6543,-5.6588,-5.6634,-5.6638,-5.6706,-5.6567,-5.6644,-5.6694,-5.657,-5.6675,-5.6666,-5.6675,-5.6811,-5.687,-5.681,-5.7101,-5.6999,-5.7018,-5.7023,-5.71,-5.7136,-5.7168,-5.6747,-5.6745,-5.6743,0,0,-5.6788,-5.6788,-5.6893,-5.69,-5.6909,-5.6876,-5.6902,-5.689,-5.6879,-5.6984,-5.6893,-5.6951,-5.7044,-5.7055,-5.7073,-5.7317,-5.7244,-5.7334,-5.7483,-5.7565,-5.7595,-5.7621,-5.7708,-5.774,-5.7353,-5.7353,-5.7353,0,-5.6924,-5.7022,-5.6955,-5.704,-5.7063,-5.6955,-5.7062,-5.7072,-5.7096,-5.7115,-5.7048,-5.7163,-5.7162,-5.7299,-5.7359,-5.7377,-5.7405,-5.7334,-5.7596,-5.7621,-5.7645,-5.7727,-5.776,-5.7364,-5.7363,-5.7362,-5.7361,0,-5.719,-5.726,-5.7344,-5.737,-5.7403,-5.7498,-5.7447,-5.7489,-5.7439,-5.7414,-5.7523,-5.7519,-5.7563,-5.7592,-5.7544,-5.7724,-5.7686,-5.7609,-5.7488,-5.7693,-5.7769,-5.78,-5.738,-5.7376,-5.7372,-5.737,0,0,-5.7529,-5.7519,-5.7551,-5.7562,-5.7564,-5.7617,-5.7709,-5.7752,-5.779,-5.7811,-5.7886,-5.7968,-5.7897,-5.7918,-5.787,-5.7943,-5.8137,-5.7856,-5.7855,-5.7908,-5.8335,-5.8392,-5.843,-5.809,-5.8095,-5.81,-5.8334,0,-5.7758,-5.7913,-5.7857,-5.8015,-5.8079,-5.7979,-5.8059,-5.807,-5.805,-5.8102,-5.8079,-5.8139,-5.8041,-5.8053,-5.812,-5.8099,-5.8221,-5.8082,-5.8158,-5.8162,-5.8158,-5.8469,-5.853,-5.8751,-5.8363,-5.8368,-5.8372,0,-5.8046,-5.8079,-5.8244,-5.8237,-5.8262,-5.8335,-5.8371,-5.8422,-5.8433,-5.8414,-5.8439,-5.8376,-5.8466,-5.8347,-5.847,-5.8377,-5.8405,-5.84,-5.8407,-5.8411,-5.8278,-5.8481,-5.882,-5.8853,-5.8418,-5.8414,-5.8411,0,-5.8277,-5.8363,-5.8473,-5.8485,-5.848,-5.8534,-5.8534,-5.8539,-5.8569,-5.8602,-5.8621,-5.8664,-5.8688,-5.8723,-5.8674,-5.8592,-5.8805,-5.8682,-5.8791,-5.8793,-5.8839,-5.8837,-5.9187,-5.886,-5.886,-5.8859,-5.8858,0,-5.8538,-5.8643,-5.8576,-5.8644,-5.8759,-5.8695,-5.8811,-5.88,-5.8806,-5.887,-5.8787,-5.8849,-5.8782,-5.8838,-5.8801,-5.8909,-5.8921,-5.8908,-5.8896,-5.8914,-5.8916,-5.8931,-5.8914,-5.8868,-5.8866,-5.8864,-5.8863,0,-5.8814,-5.8774,-5.8887,-5.8874,-5.8873,-5.8959,-5.8947,-5.901,-5.8985,-5.9068,-5.9084,-5.9045,-5.9107,-5.9063,-5.9125,-5.91,-5.9242,-5.921,-5.9238,-5.9229,-5.9341,-5.9331,-5.9712,-5.9759,-5.9404,-5.9407,-5.941,0,-5.8982,-5.9061,-5.9057,-5.9094,-5.91,-5.9161,-5.9193,-5.9133,-5.9169,-5.919,-5.925,-5.9306,-5.9346,-5.9451,-5.9429,-5.9476,-5.9444,-5.9574,-5.945,-5.9467,-5.9445,-5.9441,-5.9448,-5.9599,-5.9603,-5.9606,-5.9609,0,-5.9286,-5.9263,-5.9311,-5.9354,-5.9394,-5.9424,-5.9448,-5.9483,-5.9424,-5.9469,-5.9532,-5.9564,-5.9628,-5.9684,-5.9724,-5.9724,-5.9658,-5.9649,-5.9677,-5.9695,-5.9708,-5.9702,-5.9306,-5.964,-5.9637,-5.9634,-5.9633,-5.9632,-5.9513,-5.9578,-5.9586,-5.9643,-5.9655,-5.968,-5.9739,-5.9722,-5.9773,-5.9821,-5.9783,-5.9859,-5.987,-5.9916,-5.9926,-5.9985,-5.9931,-5.9972,-5.9981,-5.9992,-6.0008,-5.9701,-5.9992,-5.9991,-5.999,-5.9989,-5.9989,0,-5.9811,-5.9812,-5.9866,-5.9902,-5.9948,-5.9882,-5.9905,-5.9948,-6.0015,-6.0031,-6.0074,-6.0148,-6.0202,-6.0186,-6.0235,-6.0285,-6.0256,-6.03,-6.0295,-6.0296,-6.0053,-6.0024,-6.0323,-6.0323,-6.0323,-6.0323,-6.0323,-6.0323,-5.9972,-6.0079,-6.0058,-6.0172,-6.0171,-6.0245,-6.0264,-6.0287,-6.03,-6.0386,-6.0431,-6.042,-6.0423,-6.0473,-6.0521,-6.0514,-6.0536,-6.0591,-6.0574,-6.0347,-6.0313,-6.0282,-6.0254,-6.0597,-6.0597,-6.0812,-6.0814,-6.0816]},{"header":{"parameterUnit":"m.s-1","parameterCategory":1,"la1":30.2991,"la2":30.254,"lo1":-89.0895,"lo2":-89.0444,"dy":0.0017,"dx":0.0017,"nx":28,"ny":28,"refTime":"2024-12-25T03:00:00:Z","depth":0,"parameterNumber":3,"parameterNumberName":"V-component_of_WINDS"},"data":[0,0,0,0,0,0,0,0,0,0,0,0,0,0,0,0,0,0,0,0,0,0,0,0,0,0,0,0,0,0,0,0,0,0,0,0,0,0,0,0,0,0,0,0,0,0,0,0,0,0,0,0,0,0,0,0,0,0,0.1236,0.1236,0,0.1229,0.1229,0.1229,0.1249,0.125,0.1251,0.1251,0.1242,0.1241,0.1241,0,0,0,0,0,0,0,0,0,0,0,0,0,0.1267,0.1267,0.1236,0.1236,0.1236,0.1229,0.1229,0.1229,0.1249,0.125,0.1251,0.1251,0.1243,0.1242,0.1241,0,0,0,0,0,0,0,0,0,0,0,0,0,0.1256,0.1267,0.1236,0.1245,0.1246,0.1229,0.1229,0.1229,0.1249,0.125,0.1251,0.1252,0.1243,0.1242,0.124,0.1214,0,0,0.1237,0.1236,0,0,0,0,0,0,0,0,0.1257,0.1255,0.1244,0.1245,0.1246,0.1241,0.1237,0.1224,0.1249,0.1248,0.1251,0.1252,0.1241,0.124,0.1237,0.1213,0.1213,0.1237,0.1236,0.1235,0.1235,0,0,0,0,0,0,0,0.1258,0.1256,0.1233,0.1244,0.1245,0.125,0.1249,0.1234,0.1239,0.1248,0.1249,0.1248,0.1242,0.1238,0.1236,0.1213,0.1237,0.1235,0.1235,0.1234,0.117,0.1169,0,0,0,0,0,0,0.1257,0.1256,0.1234,0.1233,0.1254,0.1249,0.1248,0.1242,0.1239,0.124,0.1248,0.1249,0.1239,0.1238,0.1236,0.1206,0.1235,0.1234,0.1233,0.1171,0.117,0.1169,0,0,0,0,0,0,0.1258,0.1255,0.1234,0.1245,0.1243,0.1247,0.124,0.1241,0.1237,0.1239,0.124,0.1243,0.124,0.1238,0.122,0.1206,0.1234,0.1232,0.1172,0.117,0.1169,0.1145,0,0,0,0,0,0,0.1259,0.1255,0.1245,0.1245,0.1242,0.1217,0.1239,0.124,0.1235,0.1237,0.1235,0.1235,0.1241,0.1222,0.1219,0.1205,0.1231,0.1173,0.1171,0.1169,0.1147,0.1143,0.114,0,0,0,0,0,0.126,0.1238,0.1244,0.1242,0.1229,0.1217,0.1215,0.1222,0.1234,0.1224,0.1226,0.1235,0.1208,0.122,0.1216,0.1202,0.1174,0.1172,0.117,0.1149,0.1144,0.114,0,0,0,0,0,0,0.1235,0.1238,0.1245,0.1222,0.1219,0.122,0.1207,0.1216,0.1209,0.1212,0.122,0.1219,0.12,0.1199,0.1212,0.1177,0.1193,0.119,0.1178,0.1174,0.117,0.1171,0.123,0,0,0,0,0,0.1227,0.1217,0.122,0.1199,0.1198,0.1203,0.1197,0.1203,0.12,0.1199,0.1199,0.1195,0.1186,0.118,0.1171,0.1147,0.1148,0.1136,0.1132,0.1129,0.1127,0.1115,0.1111,0.1161,0.1161,0.1161,0,0,0.121,0.1211,0.1203,0.1195,0.1193,0.1182,0.1201,0.1189,0.1181,0.1197,0.118,0.118,0.1177,0.1156,0.1147,0.1155,0.1113,0.1127,0.1124,0.1123,0.1113,0.1108,0.1104,0.116,0.116,0.116,0,0,0.1175,0.1173,0.1157,0.1156,0.1153,0.1157,0.1153,0.1153,0.1155,0.1138,0.115,0.1141,0.1125,0.1123,0.1119,0.1085,0.1094,0.1082,0.1062,0.1051,0.1047,0.1043,0.1032,0.1028,0.1079,0.1079,0.1079,0,0.1154,0.1138,0.1147,0.1135,0.1131,0.1146,0.113,0.1128,0.1123,0.112,0.1129,0.111,0.1109,0.1089,0.108,0.1077,0.1073,0.1082,0.1047,0.1043,0.104,0.103,0.1025,0.1078,0.1078,0.1078,0.1078,0,0.1114,0.1103,0.109,0.1086,0.1081,0.1066,0.1074,0.1067,0.1074,0.1078,0.1062,0.1061,0.1053,0.1049,0.1055,0.103,0.1035,0.1045,0.1061,0.1034,0.1024,0.102,0.1076,0.1076,0.1077,0.1077,0,0,0.106,0.1064,0.1059,0.1058,0.1057,0.1049,0.1036,0.103,0.1025,0.1021,0.1011,0.0998,0.1008,0.1004,0.101,0.1001,0.0975,0.1012,0.1012,0.1006,0.0949,0.0942,0.0937,0.0981,0.0981,0.098,0.095,0,0.1026,0.1004,0.1013,0.0991,0.0982,0.0997,0.0986,0.0984,0.0987,0.098,0.0983,0.0975,0.0988,0.0986,0.0977,0.098,0.0964,0.0982,0.0972,0.0972,0.0973,0.0931,0.0923,0.0894,0.0946,0.0945,0.0945,0,0.0982,0.0979,0.0956,0.0959,0.0955,0.0945,0.0941,0.0934,0.0933,0.0936,0.0933,0.0942,0.093,0.0946,0.093,0.0943,0.0939,0.094,0.0939,0.0939,0.0957,0.093,0.0885,0.0881,0.0938,0.0939,0.0939,0,0.0947,0.0936,0.0922,0.092,0.0923,0.0916,0.0917,0.0917,0.0914,0.091,0.0908,0.0902,0.09,0.0895,0.0903,0.0914,0.0886,0.0903,0.0889,0.0888,0.0882,0.0882,0.0836,0.0879,0.0879,0.0879,0.0879,0,0.0908,0.0893,0.0906,0.0897,0.0882,0.0893,0.0877,0.0879,0.088,0.0872,0.0885,0.0877,0.0887,0.088,0.0886,0.0872,0.0871,0.0873,0.0875,0.0872,0.0872,0.087,0.0872,0.0878,0.0878,0.0878,0.0879,0,0.0866,0.0874,0.0859,0.0864,0.0865,0.0853,0.0858,0.085,0.0854,0.0844,0.0842,0.085,0.0843,0.085,0.0843,0.0847,0.0829,0.0833,0.0829,0.0831,0.0817,0.0818,0.0768,0.0762,0.0808,0.0808,0.0807,0,0.084,0.083,0.0834,0.0831,0.0831,0.0824,0.0821,0.0831,0.0828,0.0827,0.082,0.0814,0.081,0.0798,0.0803,0.0798,0.0802,0.0785,0.0802,0.08,0.0803,0.0804,0.0803,0.0782,0.0781,0.0781,0.0781,0,0.0795,0.08,0.0795,0.0792,0.0789,0.0787,0.0785,0.0781,0.0793,0.0788,0.0781,0.0778,0.0772,0.0767,0.0764,0.0765,0.0775,0.0776,0.0772,0.0769,0.0768,0.077,0.0821,0.0776,0.0777,0.0777,0.0777,0.0778,0.0761,0.0753,0.0755,0.075,0.0751,0.075,0.0744,0.0748,0.0743,0.074,0.0747,0.0739,0.074,0.0737,0.0737,0.0731,0.0739,0.0733,0.0732,0.0731,0.0729,0.0769,0.0731,0.0731,0.0731,0.0731,0.0731,0,0.0717,0.072,0.0715,0.0714,0.071,0.0721,0.0721,0.0717,0.071,0.0711,0.0707,0.0701,0.0696,0.0701,0.0697,0.0692,0.0696,0.069,0.0691,0.0691,0.0722,0.0726,0.0687,0.0687,0.0687,0.0687,0.0687,0.0687,0.0693,0.0681,0.0687,0.0675,0.0678,0.0672,0.0671,0.0671,0.0671,0.0664,0.066,0.0664,0.0667,0.0664,0.066,0.0662,0.066,0.0653,0.0656,0.0685,0.0689,0.0693,0.0697,0.0652,0.0652,0.0625,0.0625,0.0625]}]]